DB0TGO-13 Weather Reports


Display with metric or nautical units.
time (UTC)temp
F
wind
direction
speed
MPH
gust
MPH
rain 1hr
in
rain 24hr
in
rain mn
in
humidity
%
barometer
mb
20260903124509 71 230 13.0 0.0 0.00 0.00 0.00 53 1009.5
20260903123010 71 230 11.0 0.0 0.00 0.00 0.00 53 1009.5
20260903121510 70 230 11.0 0.0 0.00 0.00 0.00 53 1009.7
20260903120010 70 220 10.0 0.0 0.00 0.00 0.00 53 1009.7
20260903114510 70 220 10.0 0.0 0.00 0.00 0.00 54 1010.0
20260903113009 70 220 9.0 0.0 0.00 0.00 0.00 54 1010.0
20260903111510 69 220 9.0 0.0 0.00 0.00 0.00 55 1010.5
20260903110009 69 220 8.0 0.0 0.00 0.00 0.00 55 1010.5
20260903104510 69 220 8.0 0.0 0.00 0.00 0.00 56 1010.9
20260903103010 69 220 10.0 0.0 0.00 0.00 0.00 56 1010.9
20260903101509 68 220 10.0 0.0 0.00 0.00 0.00 60 1011.2
20260903100009 68 220 8.0 0.0 0.00 0.00 0.00 60 1011.2
20260903094509 67 210 7.0 0.0 0.00 0.00 0.00 61 1011.3
20260903093009 67 210 7.0 0.0 0.00 0.00 0.00 61 1011.3
20260903091511 66 210 7.0 0.0 0.00 0.00 0.00 63 1011.6
20260903090009 66 220 8.0 0.0 0.00 0.00 0.00 63 1011.6
20260903084509 64 220 7.0 0.0 0.00 0.00 0.00 67 1011.9
20260903083009 64 220 7.0 0.0 0.00 0.00 0.00 67 1011.9
20260903081509 63 220 6.0 0.0 0.00 0.00 0.00 68 1012.0
20260903080009 63 220 6.0 0.0 0.00 0.00 0.00 68 1012.0
20260903074509 61 220 6.0 0.0 0.00 0.00 0.00 72 1012.1
20260903073009 61 220 5.0 0.0 0.00 0.00 0.00 72 1012.1
20260903071509 60 220 5.0 0.0 0.00 0.00 0.00 76 1012.3
20260903070010 60 200 4.0 0.0 0.00 0.00 0.00 76 1012.3
20260903064509 59 220 4.0 0.0 0.00 0.00 0.00 77 1012.3
20260903063009 59 220 4.0 0.0 0.00 0.00 0.00 77 1012.3
20260903061509 59 220 4.0 0.0 0.00 0.00 0.00 77 1012.6
20260903060009 59 220 5.0 0.0 0.00 0.00 0.00 77 1012.6
20260903054509 58 220 5.0 0.0 0.00 0.00 0.00 78 1012.3
20260903053010 58 220 5.0 0.0 0.00 0.00 0.00 78 1012.3
20260903051509 58 220 5.0 0.0 0.00 0.00 0.00 79 1012.3
20260903050010 58 210 4.0 0.0 0.00 0.00 0.00 79 1012.3
20260903044509 58 210 2.0 0.0 0.00 0.00 0.00 79 1012.4
20260903043010 58 210 2.0 0.0 0.00 0.00 0.00 79 1012.4
20260903041510 58 230 2.0 0.0 0.00 0.00 0.00 81 1012.7
20260903040010 58 230 2.0 0.0 0.00 0.00 0.00 81 1012.7
20260903034509 58 220 1.0 0.0 0.00 0.00 0.00 81 1012.6
20260903033009 58 220 1.0 0.0 0.00 0.00 0.00 81 1012.6
20260903031510 59 220 1.0 0.0 0.00 0.00 0.00 78 1012.7
20260903030009 59 230 2.0 0.0 0.00 0.00 0.00 78 1012.7
20260902204509 58 210 0.0 0.0 0.00 0.00 0.00 81 1012.9
20260902203010 58 210 0.0 0.0 0.00 0.00 0.00 81 1012.9
20260902201509 62 210 0.0 0.0 0.00 0.00 0.00 73 1012.8
20260902200009 62 190 2.0 0.0 0.00 0.00 0.00 73 1012.8
20260902194510 62 190 2.0 0.0 0.00 0.00 0.00 73 1013.0
20260902193010 62 230 2.0 0.0 0.00 0.00 0.00 73 1013.0
20260902191509 65 230 2.0 0.0 0.00 0.00 0.00 67 1013.0
20260902190010 65 240 2.0 0.0 0.00 0.00 0.00 67 1013.0
20260902184511 66 240 2.0 0.0 0.00 0.00 0.00 63 1012.6
20260902183009 66 260 3.0 0.0 0.00 0.00 0.00 63 1012.6
20260902181509 66 290 4.0 0.0 0.00 0.00 0.00 63 1012.7
20260902180009 66 290 4.0 0.0 0.00 0.00 0.00 63 1012.7
20260902174509 68 290 5.0 0.0 0.00 0.00 0.00 60 1012.8
20260902173009 68 290 5.0 0.0 0.00 0.00 0.00 60 1012.8
20260902171511 70 290 5.0 0.0 0.00 0.00 0.00 52 1012.7
20260902170009 70 280 8.0 0.0 0.00 0.00 0.00 52 1012.7
20260902164510 71 230 5.0 0.0 0.00 0.00 0.00 50 1012.7
20260902163009 71 230 5.0 0.0 0.00 0.00 0.00 50 1012.7
20260902161510 72 230 5.0 0.0 0.00 0.00 0.00 47 1012.8
20260902160010 72 250 7.0 0.0 0.00 0.00 0.00 47 1012.8
20260902154509 72 210 5.0 0.0 0.00 0.00 0.00 47 1012.9
20260902153009 72 210 5.0 0.0 0.00 0.00 0.00 47 1012.9
20260902151509 72 210 5.0 0.0 0.00 0.00 0.00 48 1013.2
20260902150010 72 240 3.0 0.0 0.00 0.00 0.00 48 1013.2
20260902144510 70 220 5.0 0.0 0.00 0.00 0.00 50 1013.4
20260902143009 70 220 5.0 0.0 0.00 0.00 0.00 50 1013.4
20260902141510 73 220 5.0 0.0 0.00 0.00 0.00 47 1013.5
20260902140009 73 270 6.0 0.0 0.00 0.00 0.00 47 1013.5
20260902134509 71 270 6.0 0.0 0.00 0.00 0.00 47 1013.7
20260902133009 71 290 8.0 0.0 0.00 0.00 0.00 47 1013.7
20260902131509 70 290 8.0 0.0 0.00 0.00 0.00 49 1013.9
20260902130009 70 290 7.0 0.0 0.00 0.00 0.00 49 1013.9